Change the Weather History Date:

Monday, November 11, 2013

  Actual Average (KPMD) Record (KPMD)
Temperature  
Mean Temperature 57 °F 53 °F  
Max Temperature 73 °F 69 °F 82 °F (1956)
Min Temperature 41 °F 38 °F 20 °F (1950)
Degree Days  
Heating Degree Days 8 12  
Month to date heating degree days 107  
Since 1 July heating degree days 234  
Cooling Degree Days 0 0  
Month to date cooling degree days 0  
Year to date cooling degree days 1814  
Growing Degree Days 7 (Base 50)    
Moisture  
Dew Point 15 °F    
Average Humidity 21    
Maximum Humidity 32    
Minimum Humidity 12    
Precipitation  
Precipitation 0.00 in 0.01 in 1.24 in (1954)
Month to date precipitation 0.33  
Year to date precipitation 6.78  
Since 1 July precipitation 1.46  
Snow  
Snow 0.00 in - 0.00 in (1973)
Month to date snowfall  
Since 1 July snowfall  
Since 1 September snowfall  
Snow Depth -    
Sea Level Pressure  
Sea Level Pressure 30.19 in    
Wind  
Wind Speed 5 mph (SE)    
Max Wind Speed 7 mph    
Max Gust Speed -    
Visibility 10 miles    
Events      
T = Trace of Precipitation, MM = Missing Value Source: NWS Daily Summary

Daily Weather History Graph

Daily Weather History Graph

Search for Another Location

Airport or City:

Trip Planner

Search our weather history database for the weather conditions in past years. The results will help you decide how hot, cold, wet, or windy it might be!

Date:

Astronomy

Nov. 11, 2013 Rise Set
Actual Time 6:20 AM PST 4:48 PM PST
Civil Twilight 5:54 AM PST 5:14 PM PST
Nautical Twilight 5:23 AM PST 5:45 PM PST
Astronomical Twilight 4:54 AM PST 6:14 PM PST
Moon 1:18 PM PST (11/11) 12:25 AM PST (11/11)
Length of Visible Light 11h 20m
Length of Day
10h 27m
Waxing Gibbous, 67% of the Moon is Illuminated
Nov 11
Waxing Gibbous
Nov 17
Full
Nov 25
Last Quarter
Dec 2
New
Dec 9
First Quarter

Hourly Weather History & Observations

Time (PST) Temp. Windchill Dew Point Humidity Pressure Visibility Wind Dir Wind Speed Gust Speed Precip Events Conditions
12:55 AM 44.1 °F 41.5 °F 6.8 °F 22% 30.15 in 10.0 mi South 4.6 mph - N/A   Clear
1:55 AM 41.4 °F 38.4 °F 8.1 °F 25% 30.16 in 10.0 mi SSE 4.6 mph - N/A   Clear
2:55 AM 42.1 °F 38.4 °F 10.0 °F 27% 30.15 in 10.0 mi South 5.8 mph - N/A   Clear
3:55 AM 41.0 °F 36.4 °F 11.1 °F 29% 30.16 in 10.0 mi South 6.9 mph - N/A   Clear
4:55 AM 41.2 °F 37.3 °F 11.1 °F 29% 30.18 in 10.0 mi SSE 5.8 mph - N/A   Clear
5:55 AM 41.4 °F 38.4 °F 10.9 °F 29% 30.22 in 10.0 mi South 4.6 mph - N/A   Clear
6:55 AM 42.8 °F 41.1 °F 12.7 °F 30% 30.24 in 10.0 mi South 3.5 mph - N/A   Clear
7:55 AM 57.6 °F - 14.0 °F 18% 30.22 in 10.0 mi Calm Calm - N/A   Clear
8:55 AM 57.9 °F - 12.4 °F 17% 30.23 in 10.0 mi NW 2.3 mph - N/A   Clear
9:55 AM 64.0 °F - 15.3 °F 15% 30.22 in 10.0 mi North 4.6 mph - N/A   Clear
10:55 AM 68.5 °F - 16.2 °F 13% 30.19 in 10.0 mi ENE 5.8 mph - N/A   Clear
11:55 AM 71.2 °F - 17.2 °F 13% 30.17 in 10.0 mi ENE 4.6 mph - N/A   Clear
12:55 PM 72.5 °F - 18.7 °F 13% 30.15 in 10.0 mi Variable 4.6 mph - N/A   Clear
1:55 PM 73.8 °F - 18.1 °F 12% 30.15 in 10.0 mi East 5.8 mph - N/A   Partly Cloudy
2:55 PM 73.4 °F - 18.3 °F 12% 30.13 in 10.0 mi ENE 5.8 mph - N/A   Clear
3:55 PM 72.9 °F - 18.1 °F 13% 30.13 in 10.0 mi NE 6.9 mph - N/A   Clear
4:55 PM 68.0 °F - 17.1 °F 14% 30.16 in 10.0 mi ENE 2.3 mph - N/A   Clear
5:55 PM 59.5 °F - 13.6 °F 17% 30.21 in 10.0 mi SSE 3.5 mph - N/A   Clear
6:55 PM 55.9 °F - 16.3 °F 21% 30.24 in 10.0 mi South 6.9 mph - N/A   Clear
7:55 PM 53.8 °F - 17.1 °F 24% 30.21 in 10.0 mi South 6.9 mph - N/A   Clear
8:55 PM 52.9 °F - 18.1 °F 26% 30.22 in 10.0 mi SSE 6.9 mph - N/A   Clear
9:55 PM 51.1 °F - 20.1 °F 30% 30.21 in 10.0 mi South 5.8 mph - N/A   Clear
10:55 PM 50.4 °F - 20.1 °F 30% 30.20 in 10.0 mi South 5.8 mph - N/A   Clear
11:55 PM 48.6 °F - 19.6 °F 32% 30.20 in 10.0 mi South 6.9 mph - N/A   Clear